Flag for Germany Weather past 2 weeks in Kamp-Lintfort, North Rhine-Westphalia, Germany

39 °F

Light rain. Passing clouds.

Feels Like: 34 °F
Forecast: 36 / 46 °F
Wind: 8 mph from North

Location: Duesseldorf

Current Time: Oct 14, 2015 at 7:06:43 AM

Latest Report: Oct 14, 2015 at 6:20 AM

Visibility: N/A

Pressure: 30.09 "Hg

Humidity: 87%

Dew point: 36 °F

Location of Kamp-LintfortLocation

Historic Weather in Kamp-Lintfort — Graph


Kamp-Lintfort temperature yesterday

Maximum temperature yesterday: 41 °F (at 12:20 PM)
Minimum temperature yesterday: 34 °F (at 2:50 AM)
Average temperature yesterday: 38 °F

Past Weeks' High & Low Weather Summary

High68 °F (Oct 3, 3:20 PM)100% (Oct 2, 7:20 AM)30.60 "Hg (Oct 2, 7:20 AM)
Low32 °F (Oct 12, 5:20 AM)43% (Sep 30, 3:20 PM)29.56 "Hg (Oct 6, 5:20 AM)
Average52 °F80%30.10 "Hg
* Reported Sep 29 5:20 AM — Oct 14 5:20 AM, Kamp-Lintfort, Weather by CustomWeather, © 2015

Note: Actual official high and low records may vary slightly from our data, if they occured in-between our weather recording intervals... More about our weather records


Kamp-Lintfort weather history for previous 24 hours

Time TempWeatherWind HumidityBarometerVisibility
5:20 AM
Wed, Oct 14
39 °FPassing clouds.7 mph81%30.09 "HgN/A
4:50 AM39 °FLight rain. Passing clouds.6 mph81%30.09 "HgN/A
4:20 AM39 °FPassing clouds.7 mph81%30.09 "HgN/A
3:50 AM39 °FPassing clouds.7 mph81%30.12 "HgN/A
3:20 AM39 °FPassing clouds.7 mph81%30.12 "HgN/A
2:50 AM39 °FPassing clouds.6 mph81%30.12 "HgN/A
2:20 AM39 °FPassing clouds.10 mph81%30.12 "HgN/A
1:50 AM39 °FPassing clouds.6 mph81%30.12 "HgN/A
1:20 AM41 °FPassing clouds.7 mph76%30.12 "HgN/A
12:50 AM41 °FPassing clouds.6 mph70%30.12 "HgN/A
12:20 AM39 °FPassing clouds.7 mph81%30.12 "HgN/A
11:20 PM
Tue, Oct 13
41 °FPassing clouds.8 mph76%30.12 "HgN/A
10:50 PM41 °FPassing clouds.8 mph76%30.12 "HgN/A
10:20 PM41 °FPassing clouds.8 mph76%30.12 "HgN/A
9:50 PM41 °FPassing clouds.9 mph76%30.12 "HgN/A
9:20 PM41 °FPassing clouds.9 mph76%30.12 "HgN/A
8:50 PM41 °FPassing clouds.9 mph76%30.12 "HgN/A
8:20 PM41 °FOvercast.12 mph76%30.09 "HgN/A
7:50 PM41 °FOvercast.10 mph70%30.09 "HgN/A
7:20 PM41 °FOvercast.10 mph70%30.09 "HgN/A
6:50 PM41 °FOvercast.10 mph76%30.09 "HgN/A
6:20 PM41 °FOvercast.12 mph76%30.09 "Hg6 mi
5:50 PM41 °FOvercast.15 mph76%30.07 "Hg5 mi
5:20 PM41 °FOvercast.14 mph81%30.09 "Hg5 mi
4:50 PM41 °FOvercast.14 mph81%30.07 "Hg6 mi
4:20 PM41 °FOvercast.14 mph76%30.07 "Hg6 mi
3:50 PM41 °FOvercast.14 mph81%30.07 "Hg6 mi
3:20 PM41 °FOvercast.17 mph81%30.07 "Hg6 mi
2:50 PM41 °FPartly sunny.14 mph81%30.07 "Hg6 mi
2:20 PM41 °FPartly sunny.14 mph81%30.07 "Hg6 mi
1:50 PM41 °FPartly sunny.16 mph81%30.07 "Hg6 mi
1:20 PM41 °FPartly sunny.16 mph81%30.07 "Hg6 mi
12:50 PM41 °FPartly sunny.14 mph81%30.07 "Hg6 mi
12:20 PM41 °FPartly sunny.13 mph81%30.04 "Hg6 mi
11:50 AM39 °FBroken clouds.12 mph87%30.04 "HgN/A
11:20 AM39 °FSunny.12 mph87%30.04 "Hg10 mi
10:50 AM37 °FSunny.12 mph87%30.04 "Hg10 mi
10:20 AM37 °FSunny.13 mph87%30.01 "Hg10 mi
9:50 AM36 °FSunny.8 mph93%30.01 "Hg10 mi
9:20 AM36 °FSunny.9 mph93%30.01 "Hg10 mi
8:50 AM36 °FClear.7 mph93%30.01 "Hg10 mi
8:20 AM34 °FClear.6 mph100%30.01 "Hg6 mi
7:50 AM34 °FClear.5 mph100%30.01 "Hg10 mi
7:20 AM34 °FClear.5 mph100%30.01 "Hg10 mi
Weather by CustomWeather, © 2015

See weather overviewHow to use our weather pages